This is the latest recevied weather packets stored in our database for station/object N3FWE. If no packets are shown the sender has not sent any weather packets the latest 10 day(s).
| Time | Temp. | Humidity | Pressure | Rain* | Wind** | Luminosity | Snow |
|---|---|---|---|---|---|---|---|
| 1778067599 | 17.78° C | 79% | 1009.3 hPa | 0.25 mm | - | - | - |
| 1778066999 | 18.33° C | 75% | 1009.1 hPa | 0 mm | - | - | - |
| 1778066400 | 18.33° C | 71% | 1008.9 hPa | 0 mm | - | - | - |
| 1778065799 | 18.89° C | 70% | 1008.8 hPa | 0 mm | - | - | - |
| 1778065199 | 18.89° C | 69% | 1008.7 hPa | 0 mm | - | - | - |
| 1778064599 | 19.44° C | 68% | 1008.4 hPa | 0 mm | - | - | - |
| 1778063999 | 19.44° C | 64% | 1008.4 hPa | 0 mm | - | - | - |
| 1778063398 | 19.44° C | 64% | 1008.2 hPa | 0 mm | - | - | - |
| 1778062798 | 19.44° C | 64% | 1008.3 hPa | 0 mm | - | - | - |
| 1778062197 | 19.44° C | 63% | 1008.2 hPa | 0 mm | - | - | - |
| 1778061598 | 19.44° C | 63% | 1008 hPa | 0 mm | - | - | - |
| 1778060998 | 19.44° C | 62% | 1008 hPa | 0 mm | - | - | - |
| 1778060397 | 20° C | 62% | 1007.9 hPa | 0 mm | - | - | - |
| 1778059798 | 20° C | 62% | 1008 hPa | 0 mm | - | - | - |
| 1778059197 | 20° C | 62% | 1008.1 hPa | 0 mm | - | - | - |
| 1778058598 | 20° C | 61% | 1008.3 hPa | 0 mm | - | - | - |
| 1778057998 | 20° C | 61% | 1008.3 hPa | 0 mm | - | - | - |
| 1778057398 | 20° C | 61% | 1008.5 hPa | 0 mm | - | - | - |
| 1778056798 | 20° C | 61% | 1008.5 hPa | 0 mm | - | - | - |
| 1778056197 | 19.44° C | 62% | 1008.6 hPa | 0 mm | - | - | - |
| 1778055598 | 18.89° C | 63% | 1008.4 hPa | 0 mm | - | - | - |
| 1778054998 | 18.33° C | 65% | 1008.5 hPa | 0 mm | - | - | - |
| 1778054398 | 17.22° C | 68% | 1008.6 hPa | 0 mm | - | - | - |
| 1778053798 | 16.67° C | 68% | 1008.5 hPa | 0 mm | - | - | - |
| 1778053198 | 16.67° C | 68% | 1008.5 hPa | 0 mm | - | - | - |
* Rain latest hour (hover to see other rain measurements)
** Current wind speed in m/s (hover to see current wind gust speed)